TimeEDT,TemperatureF,Dew PointF,Humidity,Sea Level PressureIn,VisibilityMPH,Wind Direction,Wind SpeedMPH,Gust SpeedMPH,PrecipitationIn,Events,Conditions,WindDirDegrees,DateUTC
12:51 AM,51.8,41.0,67,29.81,10.0,South,8.1,-,N/A,,Overcast,180,2012-10-22 04:51:00
1:51 AM,50.0,41.0,71,29.81,10.0,SW,5.8,-,N/A,,Clear,220,2012-10-22 05:51:00
2:51 AM,46.4,41.0,81,29.81,10.0,SSE,5.8,-,N/A,,Clear,160,2012-10-22 06:51:00
3:51 AM,48.0,41.0,77,29.80,10.0,West,10.4,-,N/A,,Clear,270,2012-10-22 07:51:00
4:51 AM,48.9,39.9,71,29.82,10.0,West,9.2,-,N/A,,Clear,280,2012-10-22 08:51:00
5:51 AM,45.0,39.0,80,29.83,10.0,WNW,8.1,-,N/A,,Clear,290,2012-10-22 09:51:00
8:51 AM,53.6,39.2,58,29.86,10.0,WNW,9.2,-,N/A,,Clear,300,2012-10-22 12:51:00
9:51 AM,55.9,39.9,55,29.86,10.0,WNW,9.2,-,N/A,,Partly Cloudy,300,2012-10-22 13:51:00
10:51 AM,60.8,41.0,48,29.87,10.0,NW,6.9,-,N/A,,Partly Cloudy,320,2012-10-22 14:51:00
11:51 AM,61.0,39.9,46,29.86,10.0,NNW,12.7,20.7,N/A,,Scattered Clouds,330,2012-10-22 15:51:00
12:51 PM,62.1,39.9,44,29.86,10.0,NNW,11.5,20.7,N/A,,Scattered Clouds,330,2012-10-22 16:51:00
1:51 PM,62.1,39.9,44,29.85,10.0,NW,11.5,-,N/A,,Scattered Clouds,310,2012-10-22 17:51:00
2:51 PM,62.1,37.9,41,29.85,10.0,WNW,23.0,29.9,N/A,,Scattered Clouds,300,2012-10-22 18:51:00
3:51 PM,61.0,37.9,42,29.86,10.0,NW,16.1,24.2,N/A,,Partly Cloudy,320,2012-10-22 19:51:00
4:51 PM,57.9,37.9,47,29.88,10.0,NNW,15.0,-,N/A,,Clear,340,2012-10-22 20:51:00
5:51 PM,55.4,39.2,54,29.90,10.0,NNW,6.9,-,N/A,,Clear,330,2012-10-22 21:51:00
6:51 PM,50.0,39.0,66,29.91,10.0,WNW,5.8,-,N/A,,Clear,290,2012-10-22 22:51:00
7:51 PM,51.1,37.9,61,29.93,10.0,Calm,Calm,-,N/A,,Clear,0,2012-10-22 23:51:00
8:51 PM,50.0,37.9,63,29.93,10.0,West,3.5,-,N/A,,Clear,260,2012-10-23 00:51:00
9:51 PM,46.9,37.9,71,29.94,10.0,Calm,Calm,-,N/A,,Clear,0,2012-10-23 01:51:00
10:51 PM,44.6,37.4,76,29.95,10.0,Calm,Calm,-,N/A,,Clear,0,2012-10-23 02:51:00
11:51 PM,46.4,37.4,71,29.95,10.0,West,3.5,-,N/A,,Clear,280,2012-10-23 03:51:00